Weather in Yantyshevo

Russia / Republic of Bashkortostan     51°53′19″N   57°44′10″E
temp.,
°C
wind,
m/s
gust,
m/s
humid.,
%
clouds,
%
prec.,
mm/h
press.,
hPa
HPBL,
m
28 february, sun
sun2823:00−7se1297100 1.1 100587
02:00−6e1297100 0.6 100429
05:00−5ene1298100 3.0 1002136
08:00−6ene2298100 1.9 100163
11:00−5ene2297100 3.8 1001139
14:00−4ese2397100 2.4 1001286
17:00−2wsw4893100 4.1 1002611
20:00−6w379694 0.3 1006228
1 march, mon
mon123:00−8wsw589597 0.6 1009288
02:00−14w339799 0.1 101155
05:00−16w239899 0.1 101337
08:00−16w249798 0.1 1015103
11:00−12w359399 0.2 1017268
14:00−10w4693100 0.1 1017354
17:00−12w5893100 0.2 1018398
20:00−15w5995100 0.1 1019310
2 march, tue
tue223:00−16w499798 0.2 1019216
02:00−18w4899100 0.0 1020170
05:00−20w51099100 0.1 1020207
08:00−22w47100100 0.0 1020144
11:00−18w51098100 0.1 1019272
14:00−15wsw6109480 0.0 1018343
17:00−15wsw5119368 0.0 1016339
20:00−17sw5139799 0.0 1015338
3 march, wed
wed323:00−14sw51594100 0.1 1013406
02:00−10ssw61594100 0.1 1009518
05:00−6ssw81594100 0.8 1007782
08:00−5ssw81495100 1.2 1004883
11:00−3sw81395100 2.1 1003905
14:00−2sw71195100 0.9 1002832
17:00−2wsw6994100 1.4 1001732
20:00−4wsw4897100 0.4 1001296
4 march, thu
thu423:00−6wsw51096100 0.9 1003311
02:00−7w5996100 0.1 1004253
05:00−12wnw369594 0.1 100697
08:00−13wnw379745 0.0 1007119
11:00−7wnw6109270 0.0 1009531
14:00−5wnw6887100 0.1 1010829
17:00−6w6988100 0.1 1012865
20:00−11w6129694 0.0 1015348